User: anonymous   Login
Location: Unspecified
(0.0000°N, 0.0000°E)
Time: 18:41:07
(UTC+00:00)
Language:

USA 184 - Orbit

View from above orbital plane
View from above orbital plane
View from above satellite
View from above satellite

Ground track
Ground track

The orbit data is extracted from the following two-line orbital elements,

1 29249U 06027A   16217.04076448 0.00000608  00000-0  00000-0 0    08
2 29249  63.7436 320.6420 7101089 267.1126  17.1546  2.00615000    03
Epoch (UTC): 04 August 2016 00:58:42
Eccentricity: 0.7101089
inclination: 63.7436°
perigee height: 1320 km
apogee height: 39035 km
right ascension of ascending node: 320.6420°
argument of perigee: 267.1126°
revolutions per day: 2.00615000
mean anomaly at epoch: 17.1546°
orbit number at epoch: 0

The dashed part of the orbit path shows where the satellite is in the earth's shadow,  

DLR